Boise, ID

11:41 PM MST on December 05, 2019 (GMT -0700)
Boise Air Term

Weather History for KBOI - November, 2019

Change the Weather History Date:

Wednesday, November 13, 2019

  Actual Average Record
Temperature  
Mean Temperature 44 °F 41 °F  
Max Temperature 56 °F 49 °F 69 °F (1939)
Min Temperature 32 °F 33 °F 7 °F (1916)
Degree Days  
Heating Degree Days 21 24  
Month to date heating degree days 281 277  
Since 1 July heating degree days 969 783  
Cooling Degree Days 0 0  
Month to date cooling degree days 0 0  
Year to date cooling degree days 1020 942  
Moisture  
Dew Point 26 °F    
Average Humidity 57    
Maximum Humidity 76    
Minimum Humidity 37    
Precipitation  
Precipitation 0.00 in 0.04 in 0.80 in (1897)
Month to date precipitation 0.00 0.53  
Year to date precipitation 13.35 9.36  
Snow  
Snow 0.00 in 0.10 in 3.30 in (2014)
Month to date snowfall 0.0 0.5  
Since 1 July snowfall 0.4 0.6  
Snow Depth 0.00 in    
Sea Level Pressure  
Sea Level Pressure 30.15 in    
Wind  
Wind Speed 3 mph ()    
Max Wind Speed 9 mph    
Max Gust Speed 11 mph    
Visibility 10.0 miles    
Events      
T = Trace of Precipitation, MM = Missing Value Source: Averaged Metar Reports

Daily Weather History Graph

Daily Weather History Graph

Search for Another Location

Airport or City:

Astronomy

Nov. 13, 2019 Rise Set
Actual Time 7:35 AM MST 5:21 PM MST
Civil Twilight 7:05 AM MST 5:52 PM MST
Nautical Twilight 6:30 AM MST 6:27 PM MST
Astronomical Twilight 5:56 AM MST 7:00 PM MST
Moon 6:26 PM MST (11/13) 8:34 AM MST (11/13)
Length of Visible Light 10h 47m
Length of Day
9h 45m
Full, 98% of the Moon is Illuminated
Nov 13
Full
Nov 19
Last Quarter
Nov 26
New
Dec 3
First Quarter
Dec 11
Full

Hourly Weather History & Observations

Time (MST) Temp. Windchill Dew Point Humidity Pressure Visibility Wind Dir Wind Speed Gust Speed Precip Events Conditions
1:53 AM 33.1 °F 28.7 °F 21.0 °F 61% 30.17 in 10.0 mi ESE 4.6 mph - N/A   Mostly Cloudy
2:53 AM 33.1 °F - 21.9 °F 64% 30.18 in 10.0 mi Calm Calm - N/A   Clear
3:53 AM 34.0 °F 31.0 °F 21.9 °F 61% 30.18 in 10.0 mi ENE 3.5 mph - N/A   Clear
4:53 AM 33.1 °F 30.0 °F 21.9 °F 64% 30.19 in 10.0 mi ESE 3.5 mph - N/A   Overcast
5:53 AM 34.0 °F 29.8 °F 23.0 °F 64% 30.19 in 10.0 mi SE 4.6 mph - N/A   Overcast
6:53 AM 35.1 °F 32.2 °F 25.0 °F 67% 30.18 in 10.0 mi ESE 3.5 mph - N/A   Overcast
7:53 AM 36.0 °F 33.3 °F 25.0 °F 64% 30.19 in 10.0 mi SSW 3.5 mph - N/A   Overcast
1:53 PM - - - N/A% 30.12 in - North - - N/A   Unknown
2:53 PM 55.0 °F - 28.9 °F 37% 30.11 in 10.0 mi NNW 6.9 mph - N/A   Unknown
2:57 PM 55.0 °F - 28.9 °F 37% 30.10 in 10.0 mi NNW 4.6 mph - N/A   Clear
3:53 PM 55.0 °F - 28.9 °F 37% 30.10 in 10.0 mi West 6.9 mph - N/A   Clear
4:53 PM 53.1 °F - 30.0 °F 41% 30.11 in 10.0 mi WNW 5.8 mph - N/A   Clear
5:53 PM 50.0 °F - 28.9 °F 44% 30.12 in 10.0 mi Calm Calm - N/A   Clear
6:53 PM 45.0 °F 43.5 °F 28.0 °F 52% 30.14 in 10.0 mi WSW 3.5 mph - N/A   Clear
7:53 PM 43.0 °F - 28.0 °F 56% 30.14 in 10.0 mi Calm Calm - N/A   Clear
8:53 PM 39.9 °F 37.8 °F 27.0 °F 60% 30.15 in 10.0 mi ESE 3.5 mph - N/A   Clear
9:53 PM 39.0 °F 35.7 °F 27.0 °F 62% 30.17 in 10.0 mi SE 4.6 mph - N/A   Clear
10:53 PM 37.9 °F 32.7 °F 30.0 °F 73% 30.18 in 10.0 mi SE 6.9 mph - N/A   Clear
11:53 PM 37.0 °F 31.6 °F 30.0 °F 76% 30.19 in 10.0 mi ESE 6.9 mph - N/A   Clear